| time (UTC) | temp F | wind direction | speed MPH | gust MPH | rain 1hr in | rain 24hr in | rain mn in | humidity % | barometer mb |
| 20260507060108 | 71 | 360 | 3.0 | 8.0 | 0.00 | 0.00 | 0.00 | 56 | 1020.7 |
| 20260507054548 | 70 | 360 | 3.0 | 11.0 | 0.00 | 0.00 | 0.00 | 58 | 1020.5 |
| 20260507053040 | 69 | 318 | 4.0 | 9.0 | 0.00 | 0.00 | 0.00 | 60 | 1020.5 |
| 20260507051540 | 68 | 360 | 3.0 | 9.0 | 0.00 | 0.00 | 0.00 | 62 | 1020.6 |
| 20260507050034 | 66 | 360 | 2.0 | 4.0 | 0.00 | 0.00 | 0.00 | 64 | 1020.5 |
| 20260507044516 | 65 | 360 | 1.0 | 3.0 | 0.00 | 0.00 | 0.00 | 67 | 1020.3 |
| 20260507043012 | 63 | 316 | 1.0 | 3.0 | 0.00 | 0.00 | 0.00 | 69 | 1020.5 |
| 20260507041520 | 61 | 315 | 0.0 | 1.0 | 0.00 | 0.00 | 0.00 | 72 | 1020.3 |
| 20260507040100 | 59 | 317 | 0.0 | 0.0 | 0.00 | 0.00 | 0.00 | 74 | 1020.2 |
| 20260507034556 | 57 | 317 | 0.0 | 0.0 | 0.00 | 0.00 | 0.00 | 76 | 1020.1 |
| 20260507033052 | 56 | 316 | 0.0 | 0.0 | 0.00 | 0.00 | 0.00 | 75 | 1019.9 |
| 20260507031547 | 55 | 316 | 0.0 | 0.0 | 0.00 | 0.00 | 0.00 | 75 | 1019.9 |
| 20260507030040 | 54 | 316 | 0.0 | 0.0 | 0.00 | 0.00 | 0.00 | 74 | 1019.6 |
| 20260507024539 | 55 | 316 | 0.0 | 0.0 | 0.00 | 0.00 | 0.00 | 74 | 1019.5 |
| 20260507023042 | 55 | 316 | 0.0 | 0.0 | 0.00 | 0.00 | 0.00 | 73 | 1019.3 |
| 20260507021540 | 55 | 315 | 0.0 | 2.0 | 0.00 | 0.00 | 0.00 | 73 | 1019.4 |
| 20260507020019 | 55 | 315 | 0.0 | 1.0 | 0.00 | 0.00 | 0.00 | 72 | 1019.4 |
| 20260507014518 | 56 | 360 | 0.0 | 2.0 | 0.00 | 0.01 | 0.00 | 72 | 1019.3 |
| 20260507013017 | 56 | 360 | 0.0 | 3.0 | 0.00 | 0.01 | 0.00 | 72 | 1019.3 |
| 20260507011516 | 56 | 360 | 1.0 | 3.0 | 0.00 | 0.01 | 0.00 | 72 | 1019.3 |
| 20260507010013 | 56 | 360 | 1.0 | 3.0 | 0.00 | 0.01 | 0.00 | 72 | 1019.3 |
| 20260507004512 | 56 | 317 | 1.0 | 2.0 | 0.00 | 0.01 | 0.00 | 72 | 1019.3 |
| 20260507003010 | 56 | 360 | 2.0 | 4.0 | 0.00 | 0.01 | 0.00 | 72 | 1019.3 |
| 20260507001513 | 56 | 360 | 2.0 | 4.0 | 0.00 | 0.01 | 0.00 | 72 | 1019.5 |
| 20260507000005 | 56 | 360 | 1.0 | 4.0 | 0.00 | 0.01 | 0.00 | 72 | 1019.5 |
| 20260506234504 | 56 | 319 | 2.0 | 4.0 | 0.00 | 0.01 | 0.00 | 71 | 1019.4 |
| 20260506233002 | 57 | 360 | 2.0 | 3.0 | 0.00 | 0.01 | 0.00 | 71 | 1019.4 |
| 20260506231501 | 57 | 315 | 0.0 | 1.0 | 0.00 | 0.01 | 0.00 | 70 | 1019.5 |
| 20260506230111 | 57 | 314 | 0.0 | 4.0 | 0.00 | 0.01 | 0.00 | 70 | 1019.5 |
| 20260506224554 | 58 | 314 | 1.0 | 3.0 | 0.00 | 0.01 | 0.00 | 70 | 1019.7 |
| 20260506223050 | 58 | 360 | 1.0 | 3.0 | 0.00 | 0.01 | 0.00 | 70 | 1019.7 |
| 20260506221602 | 58 | 313 | 0.0 | 2.0 | 0.00 | 0.01 | 0.00 | 69 | 1019.8 |
| 20260506220043 | 58 | 360 | 1.0 | 4.0 | 0.00 | 0.01 | 0.00 | 70 | 1019.8 |
| 20260506214538 | 57 | 317 | 2.0 | 5.0 | 0.00 | 0.01 | 0.00 | 70 | 1019.8 |
| 20260506213035 | 57 | 9 | 1.0 | 3.0 | 0.00 | 0.01 | 0.00 | 70 | 1020.0 |
| 20260506211535 | 57 | 10 | 0.0 | 0.0 | 0.00 | 0.01 | 0.00 | 70 | 1019.9 |
| 20260506210025 | 57 | 9 | 0.0 | 0.0 | 0.00 | 0.01 | 0.00 | 70 | 1019.9 |
| 20260506204520 | 58 | 9 | 0.0 | 2.0 | 0.00 | 0.01 | 0.01 | 70 | 1019.9 |
| 20260506203020 | 58 | 9 | 0.0 | 3.0 | 0.00 | 0.01 | 0.01 | 69 | 1020.0 |
| 20260506201622 | 58 | 9 | 0.0 | 2.0 | 0.00 | 0.01 | 0.01 | 69 | 1020.0 |
| 20260506200015 | 59 | 9 | 0.0 | 2.0 | 0.00 | 0.01 | 0.01 | 69 | 1020.1 |
| 20260506194515 | 59 | 9 | 0.0 | 3.0 | 0.00 | 0.01 | 0.01 | 68 | 1020.2 |
| 20260506193020 | 59 | 9 | 0.0 | 0.0 | 0.00 | 0.01 | 0.01 | 67 | 1020.1 |
| 20260506191514 | 60 | 9 | 0.0 | 0.0 | 0.00 | 0.01 | 0.01 | 67 | 1020.2 |
| 20260506190015 | 60 | 9 | 0.0 | 2.0 | 0.00 | 0.01 | 0.01 | 66 | 1020.1 |
| 20260506184518 | 61 | 10 | 1.0 | 3.0 | 0.00 | 0.01 | 0.01 | 65 | 1020.0 |
| 20260506183009 | 61 | 11 | 1.0 | 3.0 | 0.00 | 0.01 | 0.01 | 65 | 1020.0 |
| 20260506181507 | 61 | 11 | 0.0 | 0.0 | 0.00 | 0.01 | 0.01 | 64 | 1019.7 |
| 20260506180005 | 62 | 11 | 0.0 | 0.0 | 0.00 | 0.01 | 0.01 | 63 | 1019.4 |
| 20260506174511 | 62 | 11 | 0.0 | 0.0 | 0.00 | 0.01 | 0.01 | 62 | 1019.3 |
| 20260506173003 | 63 | 11 | 0.0 | 0.0 | 0.00 | 0.01 | 0.01 | 61 | 1019.2 |
| 20260506171502 | 63 | 11 | 0.0 | 0.0 | 0.00 | 0.01 | 0.01 | 59 | 1019.2 |
| 20260506170100 | 64 | 11 | 0.0 | 2.0 | 0.00 | 0.01 | 0.01 | 58 | 1019.1 |
| 20260506164558 | 65 | 11 | 0.0 | 2.0 | 0.00 | 0.01 | 0.01 | 57 | 1019.0 |
| 20260506163107 | 66 | 11 | 0.0 | 2.0 | 0.00 | 0.01 | 0.01 | 55 | 1018.9 |
| 20260506161557 | 67 | 11 | 0.0 | 2.0 | 0.00 | 0.01 | 0.01 | 53 | 1018.8 |
| 20260506160057 | 67 | 11 | 0.0 | 2.0 | 0.00 | 0.01 | 0.01 | 53 | 1018.7 |
| 20260506154544 | 68 | 37 | 0.0 | 4.0 | 0.00 | 0.01 | 0.01 | 51 | 1018.7 |
| 20260506153043 | 69 | 51 | 1.0 | 3.0 | 0.00 | 0.01 | 0.01 | 50 | 1018.7 |
| 20260506151543 | 69 | 43 | 1.0 | 4.0 | 0.00 | 0.01 | 0.01 | 50 | 1018.6 |
| 20260506150035 | 69 | 351 | 1.0 | 5.0 | 0.00 | 0.01 | 0.01 | 49 | 1018.6 |
| 20260506144543 | 70 | 340 | 2.0 | 5.0 | 0.00 | 0.01 | 0.01 | 46 | 1018.6 |
| 20260506143035 | 71 | 49 | 1.0 | 4.0 | 0.00 | 0.01 | 0.01 | 47 | 1018.6 |
| 20260506141533 | 72 | 328 | 2.0 | 6.0 | 0.00 | 0.01 | 0.01 | 43 | 1018.7 |
| 20260506140031 | 73 | 270 | 1.0 | 6.0 | 0.00 | 0.01 | 0.01 | 45 | 1018.6 |
| 20260506134523 | 74 | 144 | 2.0 | 6.0 | 0.00 | 0.01 | 0.01 | 45 | 1018.6 |
| 20260506133028 | 73 | 57 | 2.0 | 4.0 | 0.00 | 0.01 | 0.01 | 46 | 1018.7 |
| 20260506131522 | 73 | 59 | 2.0 | 6.0 | 0.00 | 0.01 | 0.01 | 46 | 1018.8 |
| 20260506130019 | 74 | 360 | 2.0 | 6.0 | 0.00 | 0.01 | 0.01 | 45 | 1018.9 |
| 20260506124521 | 74 | 333 | 3.0 | 8.0 | 0.00 | 0.01 | 0.01 | 43 | 1019.1 |
| 20260506123016 | 74 | 323 | 3.0 | 8.0 | 0.00 | 0.01 | 0.01 | 45 | 1019.2 |
| 20260506121517 | 74 | 322 | 2.0 | 8.0 | 0.00 | 0.01 | 0.01 | 46 | 1019.2 |
| 20260506120011 | 75 | 360 | 2.0 | 9.0 | 0.00 | 0.01 | 0.01 | 45 | 1019.3 |
| 20260506114528 | 75 | 211 | 1.0 | 5.0 | 0.00 | 0.01 | 0.01 | 46 | 1019.3 |
| 20260506113007 | 74 | 360 | 2.0 | 6.0 | 0.00 | 0.01 | 0.01 | 46 | 1019.4 |
| 20260506111507 | 73 | 155 | 3.0 | 9.0 | 0.00 | 0.01 | 0.01 | 47 | 1019.4 |
| 20260506110104 | 74 | 130 | 2.0 | 7.0 | 0.00 | 0.01 | 0.01 | 48 | 1019.5 |
| 20260506104501 | 73 | 360 | 2.0 | 10.0 | 0.00 | 0.02 | 0.01 | 47 | 1019.6 |
| 20260506103001 | 74 | 132 | 2.0 | 6.0 | 0.00 | 0.02 | 0.01 | 48 | 1019.8 |
| 20260506101601 | 74 | 360 | 3.0 | 9.0 | 0.00 | 0.02 | 0.01 | 47 | 1019.8 |
| 20260506100111 | 73 | 175 | 2.0 | 8.0 | 0.00 | 0.02 | 0.01 | 49 | 1019.9 |
| 20260506094556 | 74 | 360 | 2.0 | 7.0 | 0.00 | 0.07 | 0.01 | 49 | 1019.9 |
| 20260506093058 | 74 | 154 | 3.0 | 8.0 | 0.00 | 0.07 | 0.01 | 49 | 1019.9 |
| 20260506091556 | 74 | 326 | 3.0 | 6.0 | 0.00 | 0.07 | 0.01 | 48 | 1020.0 |
| 20260506090039 | 73 | 360 | 2.0 | 6.0 | 0.00 | 0.07 | 0.01 | 50 | 1020.0 |
| 20260506084541 | 73 | 322 | 2.0 | 9.0 | 0.00 | 0.08 | 0.01 | 50 | 1020.0 |
| 20260506083036 | 73 | 140 | 2.0 | 7.0 | 0.00 | 0.08 | 0.01 | 48 | 1020.1 |
| 20260506081534 | 73 | 181 | 2.0 | 5.0 | 0.00 | 0.08 | 0.01 | 48 | 1020.0 |
| 20260506073019 | 72 | 287 | 1.0 | 10.0 | 0.00 | 0.08 | 0.01 | 47 | 1019.8 |
| 20260506071516 | 71 | 360 | 2.0 | 8.0 | 0.00 | 0.08 | 0.01 | 48 | 1019.9 |
| 20260506061600 | 70 | 360 | 2.0 | 8.0 | 0.00 | 0.08 | 0.01 | 53 | 1019.9 |